{"data":{"norad_id":60096,"intl_designator":"2024-117F","name":"STARLINK-32016","alt_names":[],"object_type":"PAYLOAD","status":"ACTIVE","operator":null,"country":"US","launch_date":"2024-06-23","launch_site_code":"AFETR","launch_vehicle":null,"mission":null,"orbit_class":"UNKNOWN","rcs_meters":null,"size_class":null,"mass_kg":null,"dimensions":null,"purposes":["comms"],"wikipedia_slug":null,"has_3d_model":false,"image_url":null,"decayed_at":null,"tle_current":{"epoch":"2026-05-25T02:39:08.330112Z","epoch_age_seconds":72450,"freshness":"FRESH","line1":"1 60096U 24117F   26145.11051308  .00000479  00000+0  28289-4 0  9995","line2":"2 60096  53.1612  42.3865 0001262  83.4375 276.6770 15.30194707108584","mean_motion":15.30194707,"eccentricity":0.0001262,"inclination_deg":53.1612,"raan_deg":42.3865,"arg_perigee_deg":83.4375,"mean_anomaly_deg":276.677,"bstar":2.8289e-5,"rev_number":10858,"period_min":94.10567122031,"perigee_km":474.36597838319,"apogee_km":476.09576843443,"semimajor_km":6853.3678734088,"source":"CELESTRAK","updated_at":"2026-05-25T13:38:19.160687Z"}}}